Location: Belfast
(54.5830°N, 5.9330°W)
Time: 13:01:10
(UTC+00:00)

ISS - Pass Details

Date: 08 December 2017
Orbit: 402 x 406 km, 51.6° (Epoch: 16 December)

Event Time Altitude Azimuth Distance (km) Brightness Sun altitude
Rises 19:43:02 0° 276° (W) 2,333 1.2 -30.9°
Reaches altitude 10° 19:45:20 10° 263° (W) 1,469 -0.2 -31.3°
Enters shadow 19:45:30 11° 261° (W) 1,414 -0.3 -31.3°
